KL1IO Weather Reports


time (UTC)temp
F
wind
direction
speed
knots
gust
knots
rain 1hr
in
rain 24hr
in
rain mn
in
humidity
%
barometer
mb
20260507051653 38 273 0.0 0.0 0.05 0.36 0.36 99 1020.7
20260507051150 38 272 0.0 0.0 0.05 0.36 0.36 99 1020.6
20260507050647 39 273 0.0 0.0 0.00 0.35 0.35 99 1020.6
20260507050144 39 253 0.0 0.0 0.00 0.35 0.35 99 1020.4
20260507045641 39 253 0.0 0.0 0.00 0.35 0.35 99 1020.6
20260507045137 39 253 0.0 0.0 0.00 0.35 0.35 99 1020.6
20260507044635 39 253 0.0 0.0 0.00 0.35 0.35 99 1020.5
20260507044131 39 252 0.0 0.0 0.00 0.35 0.35 99 1020.4
20260507043627 39 252 0.0 0.0 0.07 0.35 0.35 99 1020.3
20260507043124 39 252 0.0 0.0 0.07 0.35 0.35 99 1020.3
20260507042620 39 252 0.0 0.0 0.00 0.34 0.34 99 1020.2
20260507042115 39 252 0.0 0.0 0.00 0.34 0.34 99 1020.3
20260507041613 39 252 0.0 0.0 0.00 0.34 0.34 99 1020.3
20260507041109 40 252 0.0 0.0 0.05 0.34 0.34 99 1020.2
20260507040606 40 252 0.0 0.0 0.05 0.34 0.34 99 1020.2
20260507035558 40 252 0.0 0.0 0.00 0.33 0.33 99 1020.3
20260507035055 40 252 0.0 0.0 0.00 0.33 0.33 99 1020.2
20260507034552 40 252 0.0 0.0 0.00 0.33 0.33 99 1020.2
20260507034050 40 252 0.0 0.0 0.00 0.33 0.33 99 1020.1
20260507033547 40 252 0.0 0.0 0.00 0.33 0.33 99 1020.1
20260507033044 40 252 0.0 0.0 0.00 0.33 0.33 99 1020.0
20260507032541 40 252 0.0 0.0 0.07 0.33 0.33 99 1020.1
20260507032038 40 252 0.0 0.0 0.07 0.33 0.33 99 1020.0
20260507031534 40 252 0.0 0.0 0.00 0.32 0.32 99 1019.9
20260507031031 40 252 0.0 0.0 0.00 0.32 0.32 99 1019.9
20260507030528 40 252 0.0 0.0 0.00 0.32 0.32 99 1019.7
20260507030026 40 252 0.0 0.0 0.00 0.32 0.32 99 1019.8
20260507025522 40 252 0.0 0.0 0.00 0.32 0.32 99 1019.7
20260507025020 40 252 0.0 0.0 0.00 0.32 0.32 99 1019.5
20260507024518 40 259 0.0 0.0 0.00 0.32 0.32 99 1019.7
20260507024014 40 259 0.0 0.0 0.00 0.32 0.32 99 1019.6
20260507023510 40 259 0.0 0.0 0.00 0.32 0.32 99 1019.6
20260507023008 40 259 0.0 0.0 0.00 0.32 0.32 99 1019.6
20260507022504 41 259 0.0 0.0 0.00 0.32 0.32 99 1019.5
20260507021959 41 256 0.0 0.0 0.00 0.32 0.32 99 1019.5
20260507021455 41 256 0.0 0.0 0.00 0.32 0.32 99 1019.3
20260507020953 41 263 0.0 0.0 0.00 0.32 0.32 99 1019.3
20260507020450 40 263 0.0 0.0 0.00 0.32 0.32 99 1019.3
20260507015947 40 263 0.0 0.0 0.00 0.32 0.32 99 1019.3
20260507015445 40 262 0.0 0.0 0.05 0.32 0.32 99 1019.3
20260507014942 40 258 0.0 0.0 0.05 0.32 0.32 99 1019.2
20260507014438 40 252 0.0 1.7 0.00 0.31 0.31 99 1019.2
20260507013934 40 254 0.0 0.0 0.00 0.31 0.31 99 1019.3
20260507013431 40 259 0.0 0.0 0.00 0.31 0.31 99 1019.2
20260507012929 40 248 0.0 0.9 0.00 0.31 0.31 99 1019.2
20260507012425 40 265 0.0 0.0 0.00 0.31 0.31 99 1019.2
20260507011917 40 267 0.0 0.9 0.00 0.31 0.31 99 1019.2
20260507011414 40 261 0.0 0.9 0.07 0.31 0.31 99 1019.2
20260507010913 40 265 0.9 1.7 0.07 0.31 0.31 99 1019.1
20260507010409 40 263 0.0 0.9 0.00 0.30 0.30 99 1019.2
20260507005906 40 261 0.0 0.9 0.00 0.30 0.30 99 1019.1
20260507005403 40 264 0.9 1.7 0.00 0.30 0.30 98 1019.0
20260507004900 41 265 0.0 0.9 0.00 0.30 0.30 98 1018.9
20260507004357 40 254 0.0 0.9 0.00 0.30 0.30 98 1019.0
20260507003854 41 240 0.9 1.7 0.00 0.30 0.30 97 1018.8
20260507003349 40 247 0.0 0.9 0.00 0.30 0.30 98 1018.9
20260507002844 41 246 0.9 0.9 0.00 0.30 0.30 98 1018.9
20260507002340 40 262 0.0 0.9 0.00 0.30 0.30 99 1018.7
20260507001838 40 262 0.0 1.7 0.00 0.30 0.30 98 1018.7
20260507001335 40 271 0.0 0.9 0.00 0.30 0.30 97 1018.8
20260507000831 40 250 0.0 1.7 0.00 0.30 0.30 97 1018.7
20260507000328 40 263 0.0 0.0 0.00 0.30 0.30 98 1018.6
20260506235824 40 244 0.9 0.9 0.00 0.30 0.30 98 1018.5
20260506235320 40 256 0.0 0.0 0.00 0.30 0.30 98 1018.6
20260506234816 40 255 0.0 0.0 0.05 0.30 0.30 99 1018.4
20260506234314 40 264 0.0 1.7 0.05 0.30 0.30 98 1018.3
20260506233811 40 264 0.0 0.9 0.00 0.29 0.29 98 1018.4
20260506233307 40 264 0.9 1.7 0.00 0.29 0.29 98 1018.3
20260506232804 40 256 0.0 0.9 0.00 0.29 0.29 97 1018.2
20260506232300 40 265 0.0 1.7 0.00 0.29 0.29 97 1018.2
20260506231757 40 263 0.9 1.7 0.00 0.29 0.29 96 1018.2
20260506231255 41 268 0.0 0.9 0.00 0.29 0.29 95 1018.2
20260506230752 41 265 0.0 0.9 0.07 0.29 0.29 95 1018.0
20260506230243 41 259 0.0 0.9 0.07 0.29 0.29 96 1018.0
20260506225739 41 266 0.0 0.9 0.00 0.28 0.28 95 1018.0
20260506225236 41 268 0.9 1.7 0.00 0.28 0.28 95 1018.1
20260506224732 41 255 0.0 1.7 0.00 0.28 0.28 95 1017.9
20260506224230 41 266 0.9 1.7 0.00 0.28 0.28 95 1018.0
20260506223726 40 251 0.9 0.9 0.00 0.28 0.28 96 1017.9
20260506223222 40 255 0.0 0.9 0.00 0.28 0.28 96 1017.7
20260506222714 41 263 0.0 0.9 0.00 0.28 0.28 96 1017.7
20260506222209 40 252 0.0 0.9 0.00 0.28 0.28 96 1017.7
20260506221707 40 264 0.0 0.9 0.00 0.28 0.28 97 1017.7
20260506221205 40 263 0.0 0.9 0.00 0.28 0.28 97 1017.6
20260506220702 40 251 0.9 1.7 0.00 0.28 0.28 96 1017.8
20260506220157 40 259 0.9 1.7 0.00 0.28 0.28 96 1017.6
20260506215654 41 267 0.0 0.9 0.00 0.28 0.28 98 1017.8
20260506215148 40 266 0.0 0.9 0.00 0.28 0.28 97 1017.5
20260506214646 40 254 0.0 0.9 0.00 0.28 0.28 97 1017.7
20260506214143 40 244 0.9 1.7 0.00 0.28 0.28 97 1017.5
20260506213641 40 262 0.9 0.9 0.00 0.28 0.28 98 1017.4
20260506213138 40 268 0.9 0.9 0.00 0.28 0.28 98 1017.4
20260506212635 40 268 0.9 0.9 0.00 0.28 0.28 97 1017.4
20260506212130 40 268 0.0 0.0 0.00 0.28 0.28 98 1017.4
20260506211626 39 268 0.0 0.9 0.00 0.28 0.28 97 1017.4
20260506211123 40 268 0.0 0.9 0.00 0.28 0.28 98 1017.3
20260506210620 39 268 0.0 0.9 0.00 0.28 0.28 98 1017.1
20260506210116 39 269 0.0 0.9 0.00 0.28 0.28 98 1017.1
20260506205613 39 267 0.9 1.7 0.00 0.28 0.28 97 1017.2
20260506205108 39 269 0.9 1.7 0.00 0.28 0.28 98 1017.1
20260506204606 39 269 0.0 1.7 0.00 0.28 0.28 98 1017.0
20260506204103 39 266 0.9 0.9 0.00 0.28 0.28 98 1017.0
20260506203601 39 261 0.9 0.9 0.00 0.28 0.28 98 1016.9
20260506203057 39 265 0.0 0.9 0.00 0.28 0.28 99 1016.9
20260506202555 40 269 1.7 1.7 0.00 0.28 0.28 98 1016.8
20260506202051 39 263 0.0 0.9 0.00 0.28 0.28 99 1016.9
20260506201549 39 258 0.0 0.9 0.00 0.28 0.28 98 1016.9
20260506201045 39 263 0.0 1.7 0.00 0.28 0.28 98 1016.6
20260506200541 39 242 0.9 0.9 0.00 0.28 0.28 98 1016.5
20260506200038 39 257 0.0 0.9 0.00 0.28 0.28 99 1016.5
20260506195535 39 265 0.0 1.7 0.00 0.28 0.28 98 1016.5
20260506195032 39 265 0.9 0.9 0.00 0.28 0.28 99 1016.7
20260506194529 39 265 0.9 0.9 0.00 0.28 0.28 99 1016.5
20260506194026 38 263 0.9 1.7 0.00 0.28 0.28 99 1016.4
20260506193523 38 263 0.0 1.7 0.00 0.28 0.28 99 1016.6
20260506193020 38 265 0.0 0.9 0.00 0.28 0.28 99 1016.5
20260506192517 38 266 0.0 1.7 0.00 0.28 0.28 99 1016.4
20260506192013 38 261 0.9 0.9 0.00 0.28 0.28 99 1016.2
20260506191510 38 259 0.0 0.0 0.00 0.28 0.28 99 1016.4
20260506191006 38 260 0.0 2.6 0.00 0.28 0.28 99 1016.3
20260506190503 38 266 0.9 1.7 0.00 0.28 0.28 99 1016.3
20260506185959 37 261 0.9 1.7 0.00 0.28 0.28 99 1016.1
20260506185457 37 241 1.7 1.7 0.00 0.28 0.28 99 1016.3
20260506184954 37 267 0.9 1.7 0.00 0.28 0.28 99 1016.2
20260506184451 37 249 0.9 0.9 0.00 0.28 0.28 99 1016.3
20260506183948 37 263 0.0 0.9 0.00 0.28 0.28 99 1016.1
20260506183443 37 260 0.9 1.7 0.00 0.28 0.28 99 1016.1
20260506182941 36 261 0.9 1.7 0.00 0.28 0.28 99 1016.3
20260506182438 36 254 0.0 0.0 0.00 0.28 0.28 99 1016.2
20260506181935 37 256 0.0 0.9 0.00 0.28 0.28 99 1016.1
20260506181433 36 253 0.9 0.9 0.00 0.28 0.28 99 1016.0
20260506180930 37 248 0.0 0.0 0.00 0.28 0.28 99 1016.1
20260506180426 36 248 0.0 0.0 0.00 0.28 0.28 99 1016.2
20260506175923 37 257 0.0 0.0 0.00 0.28 0.28 99 1016.0
20260506175420 37 258 0.0 0.0 0.05 0.28 0.28 99 1016.4
20260506174916 37 250 0.0 0.0 0.05 0.28 0.28 99 1016.1
20260506174414 36 250 0.0 0.0 0.00 0.27 0.27 99 1016.0
20260506173911 36 248 0.0 0.0 0.00 0.27 0.27 99 1016.3
20260506173408 36 245 0.0 0.0 0.00 0.27 0.27 99 1016.2
20260506172905 36 228 0.0 0.9 0.00 0.27 0.27 99 1016.3
20260506172401 36 231 0.0 0.9 0.00 0.27 0.27 99 1016.2
20260506171859 36 244 0.0 0.0 0.00 0.27 0.27 99 1016.3
20260506171356 36 241 0.0 0.0 0.00 0.27 0.27 99 1016.2
20260506170854 36 231 0.0 0.0 0.00 0.27 0.27 99 1016.2
20260506170349 36 254 0.0 0.0 0.00 0.27 0.27 99 1016.3
20260506165843 36 255 0.0 0.0 0.00 0.27 0.27 99 1016.1
20260506165341 35 270 0.0 0.0 0.00 0.27 0.27 99 1015.9
20260506164836 35 276 0.0 0.0 0.00 0.27 0.27 99 1016.0
20260506164333 35 60 0.0 0.9 0.07 0.27 0.27 99 1016.1
20260506163826 35 283 0.0 0.0 0.07 0.27 0.27 99 1015.9
20260506163325 35 257 0.0 0.0 0.00 0.26 0.26 99 1016.0
20260506162821 35 269 0.0 0.0 0.00 0.26 0.26 99 1016.1
20260506162319 35 273 0.0 0.9 0.00 0.26 0.26 99 1015.9
20260506161811 35 274 0.0 0.0 0.07 0.26 0.26 99 1015.9
20260506161308 35 278 0.0 0.0 0.07 0.26 0.26 99 1015.8
20260506160805 35 276 0.0 0.0 0.00 0.25 0.25 99 1015.8
20260506160302 35 289 0.0 0.0 0.05 0.25 0.25 99 1015.6
20260506155801 35 272 0.0 0.0 0.05 0.25 0.25 99 1015.8
20260506155257 35 270 0.0 0.0 0.00 0.24 0.24 99 1015.7
20260506153404 35 278 0.0 0.0 0.00 0.23 0.23 99 1015.6
20260506152902 35 277 0.0 0.0 0.05 0.23 0.23 99 1015.6
20260506152358 35 277 0.0 0.0 0.05 0.23 0.23 99 1015.8
20260506151857 35 278 0.0 0.0 0.00 0.22 0.22 99 1015.7
20260506151353 35 276 0.0 0.0 0.07 0.22 0.22 99 1015.7
20260506150851 35 280 0.0 0.0 0.07 0.22 0.22 99 1015.8
20260506150347 35 273 0.0 0.0 0.00 0.21 0.21 99 1015.7
20260506145844 34 277 0.0 0.0 0.00 0.21 0.21 99 1015.6
20260506145340 35 284 0.0 0.0 0.00 0.21 0.21 99 1015.6
20260506144838 35 287 0.0 0.9 0.05 0.21 0.21 99 1015.5
20260506144334 35 277 0.0 0.9 0.05 0.21 0.21 99 1015.5
20260506143833 35 292 0.0 0.9 0.00 0.20 0.20 99 1015.5
20260506143330 35 330 1.7 2.6 0.00 0.20 0.20 99 1015.4
20260506142828 35 346 1.7 1.7 0.00 0.20 0.20 99 1015.4
20260506142325 35 282 0.0 0.0 0.00 0.20 0.20 99 1015.6
20260506141823 35 291 0.0 0.9 0.07 0.20 0.20 99 1015.5
20260506141321 35 289 0.0 0.0 0.07 0.20 0.20 99 1015.5
20260506140819 35 286 0.0 0.0 0.00 0.19 0.19 99 1015.5
20260506140316 34 285 0.0 0.0 0.05 0.19 0.19 99 1015.4
20260506135813 34 285 0.0 0.0 0.05 0.19 0.19 99 1015.3
20260506135309 34 285 0.0 0.0 0.00 0.18 0.18 99 1015.4
20260506134806 34 285 0.0 0.0 0.07 0.18 0.18 99 1015.4
20260506134302 35 285 0.0 0.0 0.07 0.18 0.18 99 1015.4
20260506133759 34 284 0.0 0.0 0.05 0.17 0.17 99 1015.3
20260506133256 35 284 0.0 0.0 0.05 0.17 0.17 99 1015.3
20260506132752 34 284 0.0 0.0 0.00 0.16 0.16 99 1015.4
20260506132249 35 284 0.0 0.0 0.07 0.16 0.16 99 1015.4
20260506131748 35 284 0.0 0.0 0.00 0.15 0.15 99 1015.3
20260506131244 35 284 0.0 0.0 0.05 0.15 0.15 99 1015.1
20260506130741 35 284 0.0 0.0 0.05 0.15 0.15 99 1015.3
20260506130238 34 284 0.0 0.0 0.07 0.14 0.14 99 1015.3
20260506125736 34 284 0.0 0.0 0.07 0.14 0.14 99 1015.2
20260506125233 35 284 0.0 0.0 0.07 0.13 0.13 99 1015.2
20260506124732 35 284 0.0 0.0 0.07 0.13 0.13 99 1015.1
20260506124229 35 284 0.0 0.0 0.00 0.12 0.12 99 1015.1
20260506123726 35 284 0.0 0.0 0.05 0.12 0.12 99 1015.0
20260506123225 35 284 0.0 0.0 0.05 0.12 0.12 99 1015.2
20260506122721 35 284 0.0 0.0 0.00 0.11 0.11 99 1015.2
20260506122219 35 284 0.0 0.0 0.00 0.11 0.11 99 1015.2
20260506121717 35 284 0.0 0.0 0.07 0.11 0.11 99 1015.1
20260506121213 35 284 0.0 0.0 0.00 0.10 0.10 99 1015.1
20260506120710 35 284 0.0 0.0 0.00 0.10 0.10 99 1014.9
20260506120208 35 284 0.0 0.0 0.00 0.10 0.10 99 1015.1
20260506115706 35 284 0.0 0.0 0.00 0.10 0.10 99 1015.3
20260506115204 35 284 0.0 0.0 0.05 0.10 0.10 99 1015.2
20260506114701 35 284 0.0 0.0 0.05 0.10 0.10 99 1015.3
20260506114159 35 284 0.0 0.0 0.07 0.09 0.09 99 1015.1
20260506113657 35 284 0.0 0.0 0.07 0.09 0.09 99 1015.0
20260506113154 35 284 0.0 0.0 0.00 0.08 0.08 99 1015.1
20260506112650 35 284 0.0 0.0 0.05 0.08 0.08 99 1015.2
20260506112148 35 284 0.0 0.0 0.05 0.08 0.08 99 1015.2
20260506111645 35 284 0.0 0.0 0.00 0.07 0.07 99 1015.2
20260506111143 35 284 0.0 0.0 0.07 0.07 0.07 99 1015.2
20260506110640 35 284 0.0 0.0 0.07 0.07 0.07 99 1015.2
20260506110137 35 284 0.0 0.0 0.00 0.06 0.06 99 1015.1
20260506105634 35 284 0.0 0.0 0.00 0.06 0.06 99 1015.2
20260506105131 35 284 0.0 0.0 0.00 0.06 0.06 99 1015.1
20260506104629 35 284 0.0 0.0 0.00 0.06 0.06 99 1015.2
20260506104126 35 284 0.0 0.0 0.05 0.06 0.06 99 1015.3
20260506103623 35 284 0.0 0.0 0.05 0.06 0.06 99 1015.1
20260506103120 35 284 0.0 0.0 0.00 0.05 0.05 99 1015.1
20260506102619 35 284 0.0 0.0 0.00 0.05 0.05 99 1015.3
20260506102116 35 284 0.0 0.0 0.07 0.05 0.05 99 1015.3
20260506101612 35 284 0.0 0.0 0.07 0.05 0.05 99 1015.3
20260506101109 35 284 0.0 0.0 0.00 0.04 0.04 99 1015.2
20260506100608 35 284 0.0 0.0 0.05 0.04 0.04 99 1015.4
20260506100105 35 284 0.0 0.0 0.05 0.04 0.04 99 1015.3
20260506095604 35 284 0.0 0.0 0.00 0.03 0.03 99 1015.0
20260506095100 35 285 0.0 0.0 0.00 0.03 0.03 99 1015.2
20260506094557 35 285 0.0 0.0 0.00 0.03 0.03 99 1015.1
20260506094055 35 285 0.0 0.0 0.07 0.03 0.03 99 1015.2
20260506093553 35 285 0.0 0.0 0.07 0.03 0.03 99 1015.1
20260506093051 35 285 0.0 0.0 0.00 0.02 0.02 99 1015.0
20260506092548 35 285 0.0 0.0 0.00 0.02 0.02 99 1015.2
20260506092045 35 291 0.0 0.9 0.00 0.02 0.02 99 1015.0
20260506091543 35 286 0.0 0.0 0.00 0.02 0.02 99 1015.0
20260506091040 35 286 0.0 0.0 0.00 0.02 0.02 99 1014.9
20260506090538 35 288 0.0 0.9 0.05 0.02 0.02 99 1015.0
20260506090034 35 286 0.0 0.0 0.05 0.02 0.02 99 1015.2
20260506085531 35 285 0.0 0.0 0.00 0.01 0.01 99 1015.3
20260506085027 35 285 0.0 0.0 0.00 0.01 0.01 99 1015.1
20260506084525 35 286 0.0 0.0 0.00 0.01 0.01 99 1015.1
20260506084020 35 285 0.0 0.0 0.00 0.01 0.01 99 1015.0
20260506083518 35 285 0.0 0.0 0.00 0.01 0.01 99 1015.0
20260506083015 35 285 0.0 0.0 0.07 0.01 0.01 99 1015.1
20260506082512 35 285 0.0 0.0 0.07 0.01 0.01 99 1014.8
20260506082007 35 285 0.0 0.0 0.00 0.00 0.00 99 1015.0
20260506081506 35 284 0.0 0.0 0.00 0.00 0.00 99 1015.0
20260506081003 35 284 0.0 0.0 0.00 0.00 0.00 99 1014.9
20260506080500 35 284 0.0 0.0 0.00 0.00 0.00 99 1014.9
20260506073444 35 283 0.0 0.0 0.00 0.65 0.65 99 1014.6
20260506072941 35 283 0.0 0.0 0.00 0.65 0.65 99 1014.6
20260506072438 35 283 0.0 0.0 0.00 0.65 0.65 99 1014.6
20260506071936 35 283 0.0 0.0 0.00 0.65 0.65 99 1014.5
20260506071434 36 283 0.0 0.0 0.00 0.65 0.65 99 1014.5
20260506070930 35 283 0.0 0.0 0.00 0.65 0.65 99 1014.5
20260506070427 35 283 0.0 0.0 0.00 0.65 0.65 99 1014.5
20260506062404 36 276 0.0 0.0 0.00 0.64 0.64 99 1014.1
20260506061900 36 276 0.0 0.0 0.00 0.64 0.64 99 1014.1
20260506061357 36 276 0.0 0.0 0.00 0.64 0.64 99 1014.1
20260506060855 36 276 0.0 0.0 0.00 0.64 0.64 99 1014.0
20260506060353 36 276 0.0 0.0 0.05 0.64 0.64 99 1014.0